Time,TemperatureF,DewpointF,PressureIn,WindDirection,WindDirectionDegrees,WindSpeedMPH,WindSpeedGustMPH,Humidity,HourlyPrecipIn,Conditions,Clouds,dailyrainin,SoftwareType,DateUTC
2013-05-04 00:00:00,66.5,49.4,29.94,SE,129,1.0,4.0,54,0.00,,---,0.00,VWS V14.00,2013-05-04 04:00:00,
2013-05-04 00:30:00,65.2,48.6,29.95,ESE,108,2.0,4.0,55,0.00,,---,0.00,VWS V14.00,2013-05-04 04:30:00,
2013-05-04 01:00:00,65.3,45.7,29.95,SE,136,2.0,5.0,49,0.00,,---,0.00,VWS V14.00,2013-05-04 05:00:00,
2013-05-04 01:30:00,65.3,45.1,29.95,ESE,120,2.0,7.0,48,0.00,,---,0.00,VWS V14.00,2013-05-04 05:30:00,
2013-05-04 02:00:00,64.0,46.5,29.95,ESE,122,1.0,4.0,53,0.00,,---,0.00,VWS V14.00,2013-05-04 06:00:00,
2013-05-04 02:30:00,63.2,45.8,29.95,East,91,2.0,4.0,53,0.00,,---,0.00,VWS V14.00,2013-05-04 06:30:00,
2013-05-04 03:00:00,62.7,45.8,29.94,East,101,2.0,4.0,54,0.00,,---,0.00,VWS V14.00,2013-05-04 07:00:00,
2013-05-04 03:30:00,62.9,44.0,29.94,ESE,105,2.0,6.0,50,0.00,,---,0.00,VWS V14.00,2013-05-04 07:30:00,
2013-05-04 04:00:00,62.5,43.6,29.95,SSE,148,5.0,6.0,50,0.00,,---,0.00,VWS V14.00,2013-05-04 08:00:00,
2013-05-04 04:30:00,62.2,43.3,29.95,SSE,153,7.0,7.0,50,0.00,,---,0.00,VWS V14.00,2013-05-04 08:30:00,
2013-05-04 05:00:00,61.3,43.5,29.96,SE,125,3.0,7.0,52,0.00,,---,0.00,VWS V14.00,2013-05-04 09:00:00,
2013-05-04 05:30:00,60.4,44.2,29.96,ESE,110,3.0,7.0,55,0.00,,---,0.00,VWS V14.00,2013-05-04 09:30:00,
2013-05-04 06:00:00,59.6,44.8,29.97,ESE,108,2.0,6.0,58,0.00,,---,0.00,VWS V14.00,2013-05-04 10:00:00,
2013-05-04 06:30:00,59.0,45.2,29.97,SE,129,1.0,5.0,60,0.00,,---,0.00,VWS V14.00,2013-05-04 10:30:00,
2013-05-04 07:00:00,58.9,45.9,29.98,ESE,115,2.0,6.0,62,0.00,,---,0.00,VWS V14.00,2013-05-04 11:00:00,
2013-05-04 07:30:00,59.0,46.8,29.98,SE,127,2.0,7.0,64,0.00,,---,0.00,VWS V14.00,2013-05-04 11:30:00,
2013-05-04 08:00:00,59.9,47.7,29.98,SE,136,2.0,8.0,64,0.00,,---,0.00,VWS V14.01,2013-05-04 12:00:00,
2013-05-04 08:30:00,60.6,48.4,29.98,SE,134,3.0,8.0,64,0.00,,---,0.00,VWS V14.00,2013-05-04 12:30:00,
2013-05-04 09:00:00,62.2,49.0,29.98,SSE,149,5.0,9.0,62,0.00,,---,0.00,VWS V14.00,2013-05-04 13:00:00,
2013-05-04 09:30:00,63.9,49.3,29.98,ESE,105,4.0,13.0,59,0.00,,---,0.00,VWS V14.00,2013-05-04 13:30:00,
2013-05-04 10:00:00,63.8,49.2,29.98,SE,141,1.0,12.0,59,0.00,,---,0.00,VWS V14.00,2013-05-04 14:00:00,
2013-05-04 10:30:00,64.6,49.5,29.99,East,100,2.0,10.0,58,0.00,,---,0.00,VWS V14.00,2013-05-04 14:30:00,
2013-05-04 11:00:00,64.9,48.8,29.98,SE,129,5.0,9.0,56,0.00,,---,0.00,VWS V14.00,2013-05-04 15:00:00,
2013-05-04 11:30:00,66.2,49.1,29.99,SE,141,4.0,9.0,54,0.00,,---,0.00,VWS V14.00,2013-05-04 15:30:00,
2013-05-04 12:00:00,66.7,50.5,29.98,ESE,121,3.0,11.0,56,0.00,,---,0.00,VWS V14.00,2013-05-04 16:00:00,
2013-05-04 12:30:00,67.1,49.4,29.98,SE,125,1.0,9.0,53,0.00,,---,0.00,VWS V14.00,2013-05-04 16:30:00,
2013-05-04 13:00:00,68.2,48.3,29.98,SSE,168,5.0,11.0,49,0.00,,---,0.00,VWS V14.00,2013-05-04 17:00:00,
2013-05-04 13:30:00,68.6,49.2,29.97,East,82,0.0,7.0,50,0.00,,---,0.00,VWS V14.00,2013-05-04 17:30:00,
2013-05-04 14:00:00,69.0,48.0,29.96,East,96,0.0,0.0,47,0.00,,---,0.00,VWS V14.00,2013-05-04 18:00:00,
2013-05-04 14:30:00,70.1,49.0,29.95,ESE,121,0.0,0.0,47,0.00,,---,0.00,VWS V14.00,2013-05-04 18:30:00,
2013-05-04 15:00:00,71.6,47.3,29.94,ESE,119,0.0,0.0,42,0.00,,---,0.00,VWS V14.00,2013-05-04 19:00:00,
2013-05-04 15:30:00,72.8,48.4,29.93,ESE,102,0.0,0.0,42,0.00,,---,0.00,VWS V14.00,2013-05-04 19:30:00,
2013-05-04 16:00:00,72.7,45.0,29.93,East,98,3.0,8.0,37,0.00,,---,0.00,VWS V14.00,2013-05-04 20:00:00,
2013-05-04 16:30:00,73.5,44.2,29.92,East,95,0.0,9.0,35,0.00,,---,0.00,VWS V14.00,2013-05-04 20:30:00,
2013-05-04 17:00:00,73.4,41.0,29.93,SE,124,3.0,8.0,31,0.00,,---,0.00,VWS V14.00,2013-05-04 21:00:00,
2013-05-04 17:30:00,73.3,41.7,29.93,East,99,0.0,8.0,32,0.00,,---,0.00,VWS V14.00,2013-05-04 21:30:00,
2013-05-04 18:00:00,72.9,41.3,29.93,North,9,0.0,9.0,32,0.00,,---,0.00,VWS V14.00,2013-05-04 22:00:00,
2013-05-04 18:30:00,73.2,42.4,29.94,East,81,1.0,8.0,33,0.00,,---,0.00,VWS V14.00,2013-05-04 22:30:00,
2013-05-04 19:00:00,71.9,42.0,29.93,East,82,1.0,6.0,34,0.00,,---,0.00,VWS V14.00,2013-05-04 23:00:00,
2013-05-04 19:30:00,69.3,43.3,29.95,East,88,0.0,4.0,39,0.00,,---,0.00,VWS V14.00,2013-05-04 23:30:00,
2013-05-04 20:00:00,67.7,43.8,29.95,East,87,0.0,3.0,42,0.00,,---,0.00,VWS V14.00,2013-05-05 00:00:00,
2013-05-04 20:30:00,67.1,45.1,29.96,East,84,0.0,0.0,45,0.00,,---,0.00,VWS V14.00,2013-05-05 00:30:00,
2013-05-04 21:00:00,65.9,46.2,29.96,ENE,75,0.0,0.0,49,0.00,,---,0.00,VWS V14.00,2013-05-05 01:00:00,
2013-05-04 21:30:00,65.4,47.3,29.97,East,87,0.0,0.0,52,0.00,,---,0.00,VWS V14.00,2013-05-05 01:30:00,
2013-05-04 22:00:00,64.8,47.8,29.98,East,100,0.0,1.0,54,0.00,,---,0.00,VWS V14.00,2013-05-05 02:00:00,
2013-05-04 22:30:00,63.9,47.9,29.99,ENE,66,0.0,0.0,56,0.00,,---,0.00,VWS V14.00,2013-05-05 02:30:00,
2013-05-04 23:00:00,62.8,47.8,29.99,ESE,107,0.0,0.0,58,0.00,,---,0.00,VWS V14.00,2013-05-05 03:00:00,
2013-05-04 23:30:00,62.3,48.2,29.98,ESE,103,0.0,0.0,60,0.00,,---,0.00,VWS V14.00,2013-05-05 03:30:00,